TimeCST,TemperatureF,Dew PointF,Humidity,Sea Level PressureIn,VisibilityMPH,Wind Direction,Wind SpeedMPH,Gust SpeedMPH,PrecipitationIn,Events,Conditions,WindDirDegrees,DateUTC
12:53 AM,41.0,36.0,82,30.36,10.0,East,4.6,-,N/A,,Clear,80,2012-11-18 06:53:00
1:53 AM,39.0,36.0,89,30.35,10.0,Calm,Calm,-,N/A,,Clear,0,2012-11-18 07:53:00
2:53 AM,39.0,37.0,93,30.35,9.0,Calm,Calm,-,N/A,,Clear,0,2012-11-18 08:53:00
3:53 AM,39.0,36.0,89,30.35,3.0,Calm,Calm,-,N/A,,Clear,0,2012-11-18 09:53:00
4:53 AM,37.9,37.0,97,30.36,5.0,Calm,Calm,-,N/A,,Clear,0,2012-11-18 10:53:00
5:53 AM,37.9,36.0,93,30.36,4.0,Calm,Calm,-,N/A,,Clear,0,2012-11-18 11:53:00
6:02 AM,37.4,35.6,93,30.36,2.0,Calm,Calm,-,N/A,,Clear,0,2012-11-18 12:02:00
6:15 AM,35.6,35.6,100,30.36,1.8,Calm,Calm,-,N/A,,Clear,0,2012-11-18 12:15:00
6:20 AM,35.6,35.6,100,30.35,3.0,Calm,Calm,-,N/A,,Clear,0,2012-11-18 12:20:00
6:33 AM,35.6,33.8,93,30.36,0.8,Calm,Calm,-,N/A,,Clear,0,2012-11-18 12:33:00
6:53 AM,36.0,34.0,93,30.37,4.0,Calm,Calm,-,N/A,,Clear,0,2012-11-18 12:53:00
7:53 AM,41.0,37.9,89,30.37,6.0,Calm,Calm,-,N/A,,Clear,0,2012-11-18 13:53:00
8:53 AM,51.1,41.0,68,30.37,10.0,Calm,Calm,-,N/A,,Clear,0,2012-11-18 14:53:00
9:53 AM,55.9,41.0,57,30.38,10.0,East,4.6,-,N/A,,Clear,90,2012-11-18 15:53:00
10:53 AM,61.0,37.0,41,30.38,10.0,Calm,Calm,-,N/A,,Clear,0,2012-11-18 16:53:00
11:53 AM,64.0,36.0,35,30.35,10.0,ESE,4.6,-,N/A,,Clear,110,2012-11-18 17:53:00
12:53 PM,66.0,34.0,30,30.32,10.0,Calm,Calm,-,N/A,,Clear,0,2012-11-18 18:53:00
1:53 PM,66.9,34.0,30,30.30,10.0,Calm,Calm,-,N/A,,Clear,0,2012-11-18 19:53:00
2:53 PM,68.0,36.0,31,30.30,10.0,ENE,5.8,-,N/A,,Clear,70,2012-11-18 20:53:00
3:53 PM,66.9,36.0,32,30.29,10.0,NE,5.8,-,N/A,,Clear,40,2012-11-18 21:53:00
4:53 PM,61.0,37.9,42,30.30,10.0,ENE,4.6,-,N/A,,Clear,60,2012-11-18 22:53:00
5:53 PM,54.0,39.9,59,30.30,10.0,Calm,Calm,-,N/A,,Clear,0,2012-11-18 23:53:00
6:53 PM,48.0,39.9,74,30.30,10.0,Calm,Calm,-,N/A,,Clear,0,2012-11-19 00:53:00
7:53 PM,46.0,39.9,79,30.30,10.0,Calm,Calm,-,N/A,,Clear,0,2012-11-19 01:53:00
8:53 PM,45.0,39.0,80,30.32,10.0,Calm,Calm,-,N/A,,Clear,0,2012-11-19 02:53:00
9:53 PM,42.1,39.9,92,30.33,10.0,Calm,Calm,-,N/A,,Clear,0,2012-11-19 03:53:00
10:53 PM,42.1,39.0,89,30.32,10.0,Calm,Calm,-,N/A,,Clear,0,2012-11-19 04:53:00
11:53 PM,39.9,37.0,89,30.31,7.0,Calm,Calm,-,N/A,,Clear,0,2012-11-19 05:53:00